CW8374 Weather Reports


time (UTC)temp
C
wind
direction
speed
KPH
gust
KPH
rain 1hr
cm
rain 24hr
cm
rain mn
cm
humidity
%
barometer
mb
20260509093904 12 281 1.6 4.8 0.00 0.23 0.13 3 1016.6
20260509093403 12 263 1.6 8.0 0.00 0.23 0.13 3 1016.6
20260509091904 12 314 3.2 9.7 0.00 0.23 0.13 3 1016.6
20260509091404 12 277 0.0 3.2 0.00 0.23 0.13 3 1016.6
20260509090404 12 248 3.2 11.3 0.03 0.23 0.13 3 1016.6
20260509084904 12 285 1.6 8.0 0.03 0.23 0.13 3 1016.5
20260509081904 12 313 0.0 4.8 0.08 0.23 0.13 3 1016.3
20260509080904 12 290 1.6 8.0 0.13 0.23 0.13 3 1016.3
20260509080403 12 291 1.6 4.8 0.10 0.23 0.10 3 1016.4
20260509073903 11 284 1.6 8.0 0.10 0.23 0.10 3 1016.4
20260509073405 11 264 1.6 4.8 0.10 0.23 0.10 3 1016.4
20260509071903 12 317 0.0 0.0 0.05 0.15 0.05 3 1016.2
20260509070904 12 290 0.0 0.0 0.00 0.13 0.00 3 1016.1
20260509070404 12 291 0.0 0.0 0.00 0.13 0.00 3 1016.1
20260509064903 11 286 0.0 4.8 0.00 0.13 0.00 3 1016.1
20260509064403 11 281 1.6 4.8 0.00 0.13 0.00 3 1016.0
20260509063904 11 259 1.6 4.8 0.00 0.13 0.00 3 1016.0
20260509063403 11 273 0.0 0.0 0.00 0.13 0.00 3 1015.9
20260509061904 10 313 0.0 0.0 0.00 0.13 0.00 3 1015.9
20260509060903 10 314 0.0 0.0 0.00 0.13 0.00 3 1015.9
20260509060403 10 314 0.0 0.0 0.00 0.13 0.00 3 1015.8
20260509054904 8 314 0.0 0.0 0.00 0.13 0.00 3 1015.6
20260509054403 8 314 0.0 0.0 0.00 0.13 0.00 3 1015.6
20260509051904 10 314 0.0 0.0 0.00 0.13 0.00 3 1015.3
20260509051404 10 314 0.0 0.0 0.00 0.13 0.00 3 1015.3
20260509044904 10 286 0.0 0.0 0.00 0.13 0.00 3 1015.1
20260509043404 10 273 0.0 0.0 0.00 0.13 0.00 3 1015.3
20260509041904 10 267 0.0 0.0 0.00 0.13 0.00 3 1015.4
20260509040405 10 259 0.0 0.0 0.00 0.13 0.00 3 1015.4
20260509033905 10 259 0.0 0.0 0.00 0.13 0.00 3 1015.3
20260509033403 10 259 0.0 0.0 0.00 0.13 0.00 3 1015.3
20260509031404 10 259 0.0 0.0 0.00 0.13 0.00 3 1015.3
20260509030904 10 259 0.0 0.0 0.00 0.13 0.00 3 1015.3
20260509024904 10 259 0.0 0.0 0.00 0.13 0.00 3 1015.3
20260509024404 10 260 0.0 0.0 0.00 0.13 0.00 3 1015.3
20260509023404 10 258 0.0 0.0 0.00 0.13 0.00 3 1015.2
20260509021904 10 258 0.0 0.0 0.00 0.13 0.00 3 1015.1
20260509010403 10 61 0.0 0.0 0.00 0.13 0.00 3 1015.2
20260509004903 10 53 0.0 0.0 0.00 0.13 0.00 3 1015.1
20260509004403 10 53 0.0 0.0 0.00 0.13 0.00 3 1015.1
20260509003904 10 53 0.0 0.0 0.00 0.13 0.00 3 1015.0
20260509000903 11 53 0.0 0.0 0.00 0.13 0.00 3 1015.2
20260509000404 11 52 0.0 0.0 0.00 0.13 0.00 3 1015.2
20260508234404 10 53 0.0 0.0 0.00 0.13 0.00 3 1015.2
20260508233904 10 53 0.0 0.0 0.00 0.13 0.00 3 1015.1
20260508233404 10 53 0.0 0.0 0.00 0.13 0.00 3 1015.2
20260508231904 11 53 0.0 0.0 0.00 0.13 0.00 3 1015.3
20260508231403 11 53 0.0 0.0 0.00 0.13 0.00 3 1015.2
20260508230903 11 53 0.0 0.0 0.00 0.13 0.00 3 1015.2
20260508230403 11 53 0.0 0.0 0.00 0.13 0.00 3 1015.1
20260508223903 11 53 0.0 0.0 0.00 0.13 0.13 3 1015.0
20260508223403 11 53 0.0 0.0 0.00 0.13 0.13 3 1015.0
20260508221903 11 53 0.0 0.0 0.00 0.13 0.13 3 1014.9
20260508221404 11 53 0.0 0.0 0.00 0.13 0.13 3 1014.9
20260508214403 11 53 0.0 0.0 0.00 0.13 0.13 3 1015.0
20260508213903 11 53 0.0 0.0 0.00 0.13 0.13 3 1015.0
20260508213403 11 53 0.0 0.0 0.00 0.13 0.13 3 1014.9
20260508211403 12 52 0.0 0.0 0.00 0.13 0.13 3 1014.8
20260508210403 12 52 0.0 0.0 0.00 0.13 0.13 3 1014.7
20260508203403 12 52 0.0 0.0 0.00 0.13 0.13 3 1014.4
20260508201904 12 52 0.0 0.0 0.00 0.13 0.13 3 1014.2
20260508201403 12 52 0.0 0.0 0.03 0.13 0.13 3 1014.2
20260508200904 12 52 0.0 0.0 0.05 0.13 0.13 3 1014.1
20260508194905 13 62 0.0 3.2 0.05 0.13 0.13 3 1014.0
20260508194405 13 11 0.0 0.0 0.05 0.13 0.13 3 1014.1
20260508191404 13 29 1.6 8.0 0.10 0.10 0.10 3 1014.0
20260508190905 13 59 1.6 4.8 0.08 0.08 0.08 3 1014.0
20260508184404 13 36 0.0 0.0 0.05 0.05 0.05 3 1013.5
20260508183903 13 36 0.0 3.2 0.05 0.05 0.05 3 1013.3
20260508183405 13 37 1.6 4.8 0.05 0.05 0.05 3 1013.3
20260508181904 15 318 0.0 3.2 0.05 0.05 0.05 3 1013.4
20260508180904 15 4 0.0 0.0 0.00 0.00 0.00 3 1013.3
20260508174904 15 333 3.2 12.9 0.00 0.00 0.00 31 1013.2
20260508174403 15 333 0.0 4.8 0.00 0.00 0.00 32 1013.1
20260508171905 16 346 4.8 8.0 0.00 0.00 0.00 35 1012.8
20260508164904 16 345 3.2 9.7 0.00 0.00 0.00 42 1012.8
20260508164405 16 310 3.2 8.0 0.00 0.00 0.00 42 1012.8
20260508163904 16 331 3.2 11.3 0.00 0.00 0.00 43 1012.8
20260508163405 16 330 3.2 4.8 0.00 0.00 0.00 46 1012.8
20260508160404 16 73 0.0 3.2 0.00 0.00 0.00 46 1012.7
20260508154903 16 73 1.6 4.8 0.00 0.00 0.00 46 1012.7
20260508151903 15 88 0.0 4.8 0.00 0.00 0.00 45 1012.8
20260508151404 15 99 1.6 4.8 0.00 0.00 0.00 43 1012.8
20260508150903 15 145 0.0 1.6 0.00 0.00 0.00 45 1012.8
20260508150405 15 145 0.0 8.0 0.00 0.00 0.00 45 1012.8
20260508144405 16 161 1.6 9.7 0.00 0.00 0.00 45 1012.8
20260508143904 16 88 0.0 3.2 0.00 0.00 0.00 45 1012.8
20260508141404 16 130 3.2 14.5 0.00 0.00 0.00 44 1012.8
20260508140404 16 101 0.0 4.8 0.00 0.00 0.00 44 1012.8
20260508121905 15 86 3.2 8.0 0.00 0.00 0.00 19 1013.0
20260508120404 15 141 0.0 9.7 0.00 0.00 0.00 8 1013.2
20260508111904 12 95 0.0 4.8 0.00 0.00 0.00 3 1013.2
20260508110904 12 93 0.0 0.0 0.00 0.00 0.00 3 1013.2
20260508110403 12 93 0.0 4.8 0.00 0.00 0.00 3 1013.2
20260508101404 12 119 0.0 4.8 0.00 0.00 0.00 3 1013.2
20260508100904 12 90 1.6 8.0 0.00 0.00 0.00 3 1013.2
20260508100405 12 121 0.0 4.8 0.00 0.00 0.00 3 1013.3